This demonstration page uses our WeatherBlox Daily Observations layout. Learn more.

Left ArrowRight Arrow

Hourly Observations for June 26, 2022

Temp ( °F °C ) Dew Point ( °F °C ) Humidity (%) Winds ( mph kmh ) Pressure ( in mb ) Visibility ( mi km ) Precip ( " mm )
12:51 am 00:51 Mostly Cloudy 80 26.7 56 13.3 44 44 NNW 6 9 29.91 1013 10 16 0.00 0.00
1:51 am 01:51 Cloudy 77 25 58 14.4 52 52 SW 9 15 29.93 1014 10 16 0.00 0.00
2:51 am 02:51 Mostly Cloudy 75 23.9 63 17.2 66 66 WSW 6 9 29.94 1014 10 16 0.00 0.00
3:51 am 03:51 Cloudy 72 22.2 65 18.3 79 79 NW 7 11 29.96 1015 10 16 0.00 0.00
4:51 am 04:51 Mostly Cloudy 73 22.8 63 17.2 71 71 E 8 13 29.97 1015 10 16 0.00 0.00
5:51 am 05:51 Mostly Cloudy 73 22.8 62 16.7 69 69 E 13 20 29.99 1016 10 16 0.00 0.00
6:51 am 06:51 Cloudy 74 23.3 62 16.7 67 67 E 9 15 30.02 1017 10 16 0.00 0.00
7:51 am 07:51 Cloudy with Light Rain 70 21.1 64 17.8 82 82 ESE 12 19 30.06 1018 9 14 0.00 0.00
8:51 am 08:51 Cloudy 69 20.6 68 20 96 96 S 9 15 30.06 1018 10 16 0.04 1.02
9:51 am 09:51 Mostly Cloudy 72 22.2 67 19.4 84 84 SE 8 13 30.07 1018 10 16 0.00 0.00
10:51 am 10:51 Mostly Cloudy with Light Rain 74 23.3 66 18.9 76 76 E 12 19 30.07 1018 10 16 0.00 0.00
11:51 am 11:51 Sunny 76 24.4 64 17.8 67 67 ESE 8 13 30.06 1018 10 16 0.00 0.00
12:51 pm 12:51 Mostly Cloudy 78 25.6 63 17.2 60 60 E 10 17 30.04 1017 10 16 0.00 0.00
1:51 pm 13:51 Partly Cloudy 82 27.8 60 15.6 47 47 VRB 5 7 30.01 1016 10 16 0.00 0.00
2:51 pm 14:51 Mostly Sunny 83 28.3 60 15.6 46 46 E 8 13 29.99 1016 10 16 0.00 0.00
3:51 pm 15:51 Sunny 83 28.3 60 15.6 46 46 VRB 6 9 29.97 1015 10 16 0.00 0.00
4:51 pm 16:51 Partly Cloudy 85 29.4 59 15 42 42 W 3 6 29.95 1014 10 16 0.00 0.00
5:51 pm 17:51 Sunny 83 28.3 61 16.1 48 48 SW 8 13 29.95 1014 10 16 0.00 0.00
6:51 pm 18:51 Mostly Cloudy 83 28.3 61 16.1 48 48 NW 5 7 29.96 1015 10 16 0.00 0.00
7:51 pm 19:51 Cloudy 81 27.2 61 16.1 51 51 NW 7 11 29.99 1016 10 16 0.00 0.00
8:51 pm 20:51 Clear 78 25.6 63 17.2 60 60 NW 3 6 30.02 1017 10 16 0.00 0.00
9:51 pm 21:51 Mostly Clear 77 25 64 17.8 64 64 NNW 6 9 30.03 1017 10 16 0.00 0.00
10:51 pm 22:51 Mostly Cloudy 77 25 62 16.7 60 60 S 3 6 30.04 1017 10 16 0.00 0.00
11:51 pm 23:51 Mostly Cloudy 75 23.9 63 17.2 66 66 S 5 7 30.05 1018 10 16 0.00 0.00

Powered by AerisWeather